Location: Six Mile Lake
(44.9000°N, 79.7170°W)
Time: 12:28:05
(UTC-04:00)

ZACube-1 - Pass Details

Date: 02 July 2022
Orbit: 582 x 661 km, 97.6° (Epoch: 09 August)

Event Time Altitude Azimuth Distance (km) Brightness Sun altitude
Rises 04:57:28 0° 16° (NNE) 2,953 ? -6.3°
Reaches altitude 10° 04:59:43 10° 21° (NNE) 2,051 ? -6.0°
Maximum altitude 05:04:08 56° 100° (E) 782 ? -5.5°
Drops below altitude 10° 05:08:34 10° 179° (S) 2,066 ? -4.9°
Sets 05:10:49 0° 183° (S) 2,977 ? -4.5°
